This demonstration page uses our WeatherBlox Daily Observations layout. Learn more.

Left ArrowRight Arrow

39.92423, -83.80882

Hourly Observations for February 3, 2020

Temp ( °F °C ) Dew Point ( °F °C ) Humidity (%) Winds ( mph kmh ) Pressure ( in mb ) Visibility ( mi km ) Precip ( " mm )
12:56 am 00:56 Clear 47 8.3 39 3.9 74 74 W 13 20 29.81 1010 10 16 N/A
1:56 am 01:56 Clear 43 6.1 38 3.3 82 82 W 8 13 29.82 1010 10 16 N/A
2:56 am 02:56 Clear 44 6.7 38 3.3 79 79 WSW 6 9 29.84 1011 10 16 N/A
3:56 am 03:56 Clear 36 2.2 35 1.7 97 97 N N/A 29.85 1011 10 16 N/A
4:56 am 04:56 Clear 36 2.2 35 1.7 97 97 SSE 3 6 29.86 1011 10 16 N/A
5:56 am 05:56 Clear 35 1.7 34 1.1 96 96 S 3 6 29.87 1011 10 16 N/A
6:56 am 06:56 Clear 41 5 37 2.8 86 86 S 5 7 29.87 1011 10 16 N/A
7:56 am 07:56 Sunny 39 3.9 36 2.2 89 89 SSE 3 6 29.88 1012 10 16 N/A
8:56 am 08:56 Sunny 43 6.1 37 2.8 80 80 S 7 11 29.88 1012 10 16 N/A
9:56 am 09:56 Sunny 47 8.3 39 3.9 74 74 S 10 17 29.86 1011 10 16 N/A
10:56 am 10:56 Sunny 53 11.7 41 5 64 64 SSW 12 19 29.85 1011 10 16 N/A
11:56 am 11:56 Sunny 56 13.3 42 5.6 60 60 SSW 14 22 29.81 1010 10 16 N/A
12:56 pm 12:56 Sunny 57 13.9 42 5.6 58 58 SSW 18 30 29.80 1009 10 16 N/A
1:56 pm 13:56 Sunny 59 15 42 5.6 54 54 SSW 9 15 29.77 1008 10 16 N/A
2:56 pm 14:56 Sunny 58 14.4 42 5.6 56 56 SSW 16 26 29.76 1008 10 16 N/A
3:56 pm 15:56 Sunny 58 14.4 42 5.6 56 56 SSW 10 17 29.76 1008 10 16 N/A
4:56 pm 16:56 Sunny 58 14.4 42 5.6 56 56 SSW 7 11 29.75 1008 10 16 N/A
5:56 pm 17:56 Sunny 57 13.9 42 5.6 58 58 S 8 13 29.75 1007 10 16 N/A
6:56 pm 18:56 Mostly Clear 56 13.3 41 5 57 57 S 7 11 29.76 1008 10 16 N/A
7:56 pm 19:56 Cloudy 57 13.9 42 5.6 58 58 SSW 8 13 29.76 1008 10 16 N/A
8:56 pm 20:56 Cloudy 59 15 42 5.6 54 54 SSW 16 26 29.73 1007 10 16 N/A
9:56 pm 21:56 Cloudy 60 15.6 40 4.4 47 47 SW 17 28 29.73 1007 10 16 N/A
10:56 pm 22:56 Cloudy with Light Rain 59 15 42 5.6 54 54 SW 22 35 29.75 1007 10 16 0.00 0.00
11:56 pm 23:56 Cloudy 57 13.9 43 6.1 60 60 SW 10 17 29.76 1008 10 16 0.00 0.00

Powered by AerisWeather